FENGYUN 1C DEB, 30739

Orbit data source: Space-Track

FENGYUN 1C DEB, 30739 is space debris in SSO originally from a launch on Mon, 10 May 1999 UTC launched from the Taiyaun Space Center, China (TSC). Fengyun 1C debris stems from the Chinese weather satellite Fengyun-1C, which was intentionally destroyed by a Chinese anti-satellite missile in 2007. This event dramatically increased the amount of space debris, with thousands of trackable fragments posing hazards to satellites and human spaceflight. The Fengyun 1C debris cloud has become a focal point in discussions about space sustainability and the need for international regulations to prevent the creation of new debris.

Loading next visibility...
Identifier
30739, 1999-025ASZ
Orbit
SSO
Country
Flag of CNCN / PRC
Related business
Manufacturer
Unknown
Mission
Spacecraft
Bus & Motor
Unknown
Mass
Unknown
Launch date (UTC)
1999-05-10 (27 years ago)
Launch vehicle
Unknown
Launch site
Taiyaun Space Center, China (TSC)
Object type
Payload
Rocket body
Debris
Shape & HBR
Unknown shape, 0.1 m
Radar Cross Section
Medium (>0.1 m² and <1 m²)

Expand to show TLE details & history
Last TLE update: 1 day ago

TLE from 1 day ago
0 FENGYUN 1C DEB
1 30739U 99025ASZ 26254.44627219  .00000334  00000-0  18507-3 0  9995
2 30739  98.7169 240.0739 0099543 257.0268 257.5597 14.15293177  7084
Epoch: 2026-09-11T10:42Z
TLE epoch observation values (Epoch: 2026-09-11T10:42:37.917Z)
Latitude
26.22941°
Longitude
-86.74409°
Altitude
860.659 km
Speed
7.416 km/s
True Right ascension
04h 17m 32s
True Declination
26° 05' 43"
Sunlit
Object was in daylight at epoch
Visualization orbit readout
Latitude
Unknown
Longitude
Unknown
Altitude
Unknown
Speed
Unknown
Apparent Right ascension
Unknown
Apparent Declination
Unknown
Sunlit
N/A
Visualization observer readout
Local Sidereal Time
10:37:55
Azimuth
Unknown
Elevation
Unknown
Doppler factor
Unknown
Orbital elements
Apogee altitude
910.316 km
Perigee altitude
766.643 km
Semi-major axis
7,216.617 km
Eccentricity
0.00995
Inclination
98.7169°
RAAN
240.0739°
Arg. of periapsis
257.0268°
True anomaly
256.44885°
Mean anomaly
257.5597°
Eccentric anomaly
257.00397°
Mean motion
3.54032 °/min
Orbital period
101.69 mins
BSTAR
0.00018507
Loading maneuver chart data...
Computing Atmospheric mass density...
Loading historical data...
Loading historical data...
Loading historical data...
Loading historical data...
Loading historical data...
Loading historical data...
Loading historical data...

Documentation

Showing up to 5 results
|